Printer-friendly version
Follow the MPC on Twitter Follow the MPC on Facebook The MPC blog
Minor Planet Center

MPEC 2010-O03 : 2010 NZ1

The following Minor Planet Electronic Circular may be linked-to from your own Web pages, but must not otherwise be redistributed electronically.

A form allowing access to any MPEC is at the bottom of this page.


Read MPEC 2010-O02 Read MPEC 2010-O04


M.P.E.C. 2010-O03                                Issued 2010 July 16, 17:01 UT

     The Minor Planet Electronic Circulars contain information on unusual
         minor planets and routine data on comets.  They are published
   on behalf of Commission 20 of the International Astronomical Union by the
          Minor Planet Center, Smithsonian Astrophysical Observatory,
                          Cambridge, MA 02138, U.S.A.

             Prepared using the Tamkin Foundation Computer Network

                              MPC@CFA.HARVARD.EDU
       URL http://www.minorplanetcenter.org/iau/mpc.html  ISSN 1523-6714

                                   2010 NZ1

Observations:
     K10N01Z* S2010 07 09.80824 00 58 45.29 +08 59 25.7          21   R EO003C51
     K10N01Z  s2010 07 09.80824 1 + 6554.5464 + 1867.3308 + 1115.9347   EO003C51
     K10N01Z  S2010 07 09.94055 00 58 49.22 +08 57 47.8                 EO003C51
     K10N01Z  s2010 07 09.94055 1 + 6550.2260 + 1882.2849 + 1116.8857   EO003C51
     K10N01Z  S2010 07 10.07285 00 58 53.13 +08 56 10.3                 EO003C51
     K10N01Z  s2010 07 10.07285 1 + 6545.8351 + 1897.5629 + 1118.4562   EO003C51
     K10N01Z  S2010 07 10.13894 00 58 55.12 +08 55 20.6                 EO003C51
     K10N01Z  s2010 07 10.13894 1 + 6535.4078 + 1908.4561 + 1160.0567   EO003C51
     K10N01Z  S2010 07 10.13907 00 58 55.05 +08 55 19.0                 EO003C51
     K10N01Z  s2010 07 10.13907 1 + 6551.5009 + 1901.6455 + 1078.3027   EO003C51
     K10N01Z  S2010 07 10.27124 00 58 58.90 +08 53 39.2                 EO003C51
     K10N01Z  s2010 07 10.27124 1 + 6530.8503 + 1923.2604 + 1160.8131   EO003C51
     K10N01Z  S2010 07 10.27137 00 58 58.96 +08 53 41.0                 EO003C51
     K10N01Z  s2010 07 10.27137 1 + 6546.9733 + 1916.4829 + 1079.0293   EO003C51
     K10N01Z  S2010 07 10.33746 00 59 00.79 +08 52 50.3                 EO003C51
     K10N01Z  s2010 07 10.33746 1 + 6536.7482 + 1927.2744 + 1119.8292   EO003C51
     K10N01Z  S2010 07 10.40355 00 59 02.79 +08 52 03.1                 EO003C51
     K10N01Z  s2010 07 10.40355 1 + 6526.2868 + 1938.0074 + 1160.7739   EO003C51
     K10N01Z  S2010 07 10.40367 00 59 02.72 +08 52 01.7                 EO003C51
     K10N01Z  s2010 07 10.40367 1 + 6542.4249 + 1931.2702 + 1078.9877   EO003C51
     K10N01Z  S2010 07 10.53585 00 59 06.47 +08 50 20.8                 EO003C51
     K10N01Z  s2010 07 10.53585 1 + 6521.4977 + 1952.9473 + 1163.3111   EO003C51
     K10N01Z  S2010 07 10.66815 00 59 10.20 +08 48 41.9                 EO003C51
     K10N01Z  s2010 07 10.66815 1 + 6516.7602 + 1967.8003 + 1164.3131   EO003C51
     K10N01Z 2C2010 07 15.57518701 01 02.773+07 42 12.11         22.5 R EO003568
     K10N01Z 2C2010 07 15.57653801 01 02.792+07 42 11.03         22.4 R EO003568
     K10N01Z KC2010 07 16.34299401 01 15.55 +07 30 55.3                 EO003H21
     K10N01Z KC2010 07 16.35632301 01 15.76 +07 30 43.2          21.7 V EO003H21
     K10N01Z KC2010 07 16.37039001 01 15.96 +07 30 30.9          21.4 V EO003H21

Observer details:
568 Mauna Kea.  Observers D. J. Tholen, G. T. Elliott, M. Micheli.  Measurers
    D. J. Tholen, G. T. Elliott.  2.24-m University of Hawaii reflector.
H21 Astronomical Research Observatory, Westfield.  Observer R. Holmes.
    Measurers R. Holmes, H. Devore.  0.61-m f/4.5 astrograph + CCD.
C51 WISE.  Measurers A. Mainzer, E. Wright, J. Bauer, T. Grav, J. Dailey, J.
    Masiero, R. Cutri, R. McMillan, R. Walker.
    (http://wise.ssl.berkeley.edu/mission_sci.html)

Orbital elements:
2010 NZ1                                                 Earth MOID = 0.2691 AU
Epoch 2010 July 23.0 TT = JDT 2455400.5                 MPC
M  74.26965              (2000.0)            P               Q
n   0.62164952     Peri.   37.56119     -0.92548852     +0.32588377
a   1.3596871      Node   158.79603     -0.30732488     -0.94398401
e   0.6452196      Incl.   32.26008     +0.22141008     +0.05190332
P   1.59           H   19.8           G   0.15           U   8
Residuals in seconds of arc
100709 C51  0.0   0.0     100710 C51  0.6+  0.1+    100715 568  0.0   0.0
100709 C51  0.2-  0.2+    100710 C51  0.5-  0.9-    100715 568  0.0   0.0
100710 C51  0.0   1.1+    100710 C51  1.0+  1.6+    100716 H21  0.4-  0.1+
100710 C51  0.8+  0.8+    100710 C51  0.1-  0.2+    100716 H21  0.0   0.2-
100710 C51  0.3-  0.8-    100710 C51  0.4-  1.0-    100716 H21  0.1+  0.1-
100710 C51  0.2-  1.7-    100710 C51  0.6-  0.2+

Ephemeris:
2010 NZ1                 a,e,i = 1.36, 0.65, 32                  q = 0.4824
Date    TT    R. A. (2000) Decl.     Delta      r     Elong.  Phase     V
2010 07 13    01 00.17   +08 18.3    1.140    1.571    93.3    40.2    22.7
2010 07 23    01 02.13   +05 43.4    1.083    1.648   103.4    36.8    22.6
2010 08 02    00 59.92   +02 24.4    1.027    1.719   114.7    32.4    22.4
2010 08 12    00 52.96   -01 41.8    0.979    1.785   127.2    26.9    22.2
2010 08 22    00 41.04   -06 29.0    0.949    1.846   140.7    20.3    22.0
2010 09 01    00 24.70   -11 36.4    0.943    1.902   154.0    13.4    21.8
2010 09 11    00 05.42   -16 30.7    0.968    1.953   163.1     8.6    21.8
2010 09 21    23 45.60   -20 37.7    1.026    2.000   160.2     9.8    22.0
2010 10 01    23 27.75   -23 38.5    1.114    2.042   149.6    14.4    22.4
2010 10 11    23 13.66   -25 32.3    1.228    2.080   137.9    18.8    22.8

Sonia Keys                   (C) Copyright 2010 MPC           M.P.E.C. 2010-O03

Read MPEC 2010-O02 Read MPEC 2010-O04


MPEC number:

Enter an MPEC number in one of the following forms:

  • 1997-B01 (the full form)
  • J97B01 (the packed version of the full form)
  • B01 (the abbreviated form)

Valid HTML 4.01!